FENGYUN 1C DEB *, 47015

Orbit data source: Space-Track

FENGYUN 1C DEB *, 47015 is space debris in SSO originally from a launch on Mon, 10 May 1999 UTC launched from the Taiyaun Space Center, China (TSC). Fengyun 1C debris stems from the Chinese weather satellite Fengyun-1C, which was intentionally destroyed by a Chinese anti-satellite missile in 2007. This event dramatically increased the amount of space debris, with thousands of trackable fragments posing hazards to satellites and human spaceflight. The Fengyun 1C debris cloud has become a focal point in discussions about space sustainability and the need for international regulations to prevent the creation of new debris.

Loading next visibility...
Identifier
47015, 1999-025FAR
Orbit
SSO
Country
Flag of CNCN / PRC
Related business
Manufacturer
Unknown
Mission
Spacecraft
Bus & Motor
Unknown
Mass
Unknown
Launch date (UTC)
1999-05-10 (27 years ago)
Launch vehicle
Unknown
Launch site
Taiyaun Space Center, China (TSC)
Object type
Payload
Rocket body
Debris
Shape & HBR
Unknown shape, 0.1 m
Radar Cross Section
Small (<0.1 m²)

Expand to show TLE details & history
Last TLE update: 1 day ago

TLE from 1 day ago
0 FENGYUN 1C DEB *
1 47015U 99025FAR 26235.48394626  .00003891  00000-0  30763-3 0  9995
2 47015  98.6848 322.2686 0163927  14.9849 345.6140 14.91345527681597
Epoch: 2026-08-23T11:36Z
TLE epoch observation values (Epoch: 2026-08-23T11:36:52.956Z)
Latitude
-0.00004°
Longitude
176.26861°
Altitude
486.143 km
Speed
7.682 km/s
True Right ascension
21h 29m 04s
True Declination
0° 00' 00"
Sunlit
Object was in full shadow at epoch
Visualization orbit readout
Latitude
Unknown
Longitude
Unknown
Altitude
Unknown
Speed
Unknown
Apparent Right ascension
Unknown
Apparent Declination
Unknown
Sunlit
N/A
Visualization observer readout
Local Sidereal Time
04:58:24
Azimuth
Unknown
Elevation
Unknown
Doppler factor
Unknown
Orbital elements
Apogee altitude
705.04 km
Perigee altitude
476.561 km
Semi-major axis
6,968.938 km
Eccentricity
0.01639
Inclination
98.6848°
RAAN
322.2686°
Arg. of periapsis
14.9849°
True anomaly
345.13785°
Mean anomaly
345.614°
Eccentric anomaly
345.37688°
Mean motion
3.73073 °/min
Orbital period
96.5 mins
BSTAR
0.00030763
Loading maneuver chart data...
Computing Atmospheric mass density...

Documentation

Showing up to 5 results
|